Location: �ilina
(49.3074°N, 18.7654°E)
Time: 07:44:39
(UTC+01:00)

ISS - Visible Passes

Search period start: 17 February 2026 00:00
Search period end: 27 February 2026 00:00
Orbit: 413 x 428 km, 51.6° (Epoch: 16 February)

Date Brightness Start Highest point End Pass type
(mag) Time Alt. Az. Time Alt. Az. Time Alt. Az.
17 Feb -1.0 04:06:34 16° ESE 04:06:34 16° ESE 04:07:58 10° E visible
17 Feb -3.7 05:39:34 17° WSW 05:42:01 78° SSE 05:45:22 10° ENE visible
18 Feb -3.4 04:54:28 50° S 04:54:55 56° SSE 04:58:13 10° ENE visible
19 Feb -1.5 04:09:16 25° E 04:09:16 25° E 04:11:00 10° ENE visible
19 Feb -3.7 05:42:15 18° W 05:44:36 67° NNW 05:47:55 10° ENE visible
20 Feb -3.9 04:56:58 65° W 04:57:23 81° NNW 05:00:45 10° ENE visible
21 Feb -1.9 04:11:37 32° ENE 04:11:37 32° ENE 04:13:33 10° ENE visible
21 Feb -3.4 05:44:36 15° WNW 05:47:09 55° N 05:50:27 10° ENE visible
22 Feb -0.2 03:26:14 11° ENE 03:26:14 11° ENE 03:26:19 10° ENE visible
22 Feb -3.5 04:59:12 46° NW 04:59:53 58° N 05:03:12 10° ENE visible
23 Feb -2.2 04:13:46 36° ENE 04:13:46 36° ENE 04:15:56 10° ENE visible
23 Feb -3.5 05:46:45 13° WNW 05:49:39 60° N 05:52:58 10° E visible
24 Feb -0.4 03:28:19 12° ENE 03:28:19 12° ENE 03:28:40 10° ENE visible
24 Feb -3.4 05:01:17 36° NW 05:02:20 56° N 05:05:38 10° E visible
25 Feb -2.6 04:15:49 41° NE 04:15:49 41° NE 04:18:18 10° ENE visible
25 Feb -3.8 05:48:47 11° WNW 05:52:00 87° NNE 05:55:21 10° ESE visible
26 Feb -0.6 03:30:21 14° ENE 03:30:21 14° ENE 03:30:58 10° ENE visible
26 Feb -3.7 05:03:19 32° WNW 05:04:41 71° NNE 05:08:01 10° E visible
